Spokane, WA
on Thursday, November 8, 2012

Thursday
Previous Day Next Day
Daily Summary
 ActualAverageRecord
Temperature
Mean Temperature °F 39°F  
Max Temperature 43°F 45°F 60°F (1914)
Min Temperature 28°F 32°F 12°F (1945)
Degree Days
Heating Degree Days 29 26  
Month to date heating degree days 147 201  
Since 1 July heating degree days 753 989  
Cooling Degree Days 0 0  
Month to date cooling degree days 0 0  
Year to date cooling degree days 535 450  
Moisture
Dew Point 29°F   
Average Humidity 77    
Maximum Humidity 100    
Minimum Humidity 53    
Precipitation
Precipitation 0.26 in 0.08 in 1.41 in (1902)
Month to date precipitation 0.56 0.54  
Year to date precipitation 16.06 12.50  
Snow
Snow 1.80 in 0.10 in 4.00 in (1985)
Month to date snowfall 1.8 0.7  
Since 1 July snowfall 1.8 0.8  
Since 1 September snowfall 1.8 0.8  
Snow Depth 0.00 in   
Wind
Wind Speed 7 mph   
Max Wind Speed 17 mph   
Max Gust Speed 23 mph   
Visibility 6 miles   
Events Rain , Snow   

Key: T is trace of precipitation, MM is missing value
Source: NWS Daily Summary
Time(PST)TemperatureDew PointHumidity Pressure Visibility Wind DirectionWind SpeedGust SpeedPrecipitationEvents Conditions
12:53 AM 33.1°F 28.9°F 85% 29.96 in 10.0 miles Calm Calm - N/A   Partly Cloudy
1:53 AM 32.0°F 28.0°F 85% 29.95 in 10.0 miles NE 3.5 mph - N/A   Clear
2:53 AM 30.0°F 27.0°F 88% 29.93 in 10.0 miles Calm Calm - N/A   Partly Cloudy
3:53 AM 28.9°F 26.1°F 89% 29.91 in 10.0 miles Calm Calm - N/A   Scattered Clouds
4:53 AM 28.9°F 26.1°F 89% 29.89 in 10.0 miles NE 3.5 mph - N/A   Scattered Clouds
5:53 AM 28.9°F 25.0°F 85% 29.87 in 10.0 miles Calm Calm - N/A   Mostly Cloudy
6:53 AM 28.9°F 26.1°F 89% 29.84 in 10.0 miles NE 3.5 mph - N/A   Mostly Cloudy
7:53 AM 32.0°F 28.0°F 85% 29.82 in 10.0 miles NE 5.8 mph - N/A   Mostly Cloudy
8:53 AM 35.1°F 28.9°F 78% 29.78 in 10.0 miles NNE 10.4 mph - N/A   Mostly Cloudy
9:53 AM 37.0°F 28.9°F 73% 29.77 in 10.0 miles NNE 10.4 mph - N/A   Mostly Cloudy
10:53 AM 39.9°F 30.0°F 68% 29.73 in 10.0 miles NNE 10.4 mph - N/A   Mostly Cloudy
11:53 AM 42.1°F 30.0°F 62% 29.72 in 10.0 miles NE 10.4 mph - N/A   Overcast
12:53 PM 42.1°F 28.0°F 58% 29.70 in 10.0 miles ENE 8.1 mph - N/A   Overcast
1:53 PM 43.0°F 26.1°F 51% 29.70 in 10.0 miles NE 10.4 mph - N/A   Overcast
2:53 PM 42.1°F 25.0°F 51% 29.71 in 10.0 miles ENE 9.2 mph - 0.00 in Rain Light Rain
3:53 PM 37.0°F 32.0°F 82% 29.74 in 7.0 miles ENE 16.1 mph 20.7 mph 0.00 in Rain Light Rain
3:55 PM 37.4°F 32.0°F 81% 29.69 in 2.0 miles ENE 11.5 mph 20.7 mph 0.00 in Rain Light Rain
4:22 PM 35.6°F 33.8°F 93% 29.69 in 2.0 miles NE 12.7 mph - 0.03 in Snow Light Snow
4:33 PM 33.8°F 32.0°F 93% 29.69 in 1.0 miles NE 9.2 mph - 0.04 in Snow Light Snow
4:53 PM 33.1°F 32.0°F 96% 29.74 in 0.5 miles NNE 5.8 mph - 0.06 in Snow Light Snow
5:53 PM 32.0°F 32.0°F 100% 29.75 in 0.5 miles North 8.1 mph - 0.04 in Snow Light Snow
6:53 PM 32.0°F 32.0°F 100% 29.75 in 0.5 miles NNE 9.2 mph - 0.05 in Snow Light Snow
7:53 PM 32.0°F 30.9°F 96% 29.74 in 0.5 miles NNE 10.4 mph - 0.03 in Snow Light Snow
8:53 PM 32.0°F 30.9°F 96% 29.74 in 0.5 miles NNE 9.2 mph - 0.01 in Snow Light Snow
9:53 PM 32.0°F 30.9°F 96% 29.74 in 0.5 miles NNE 9.2 mph - 0.02 in Snow Light Snow
10:53 PM 32.0°F 30.9°F 96% 29.73 in 0.5 miles NE 9.2 mph - 0.03 in Snow Light Snow
11:53 PM 32.0°F 30.9°F 96% 29.74 in 0.5 miles NE 8.1 mph - 0.02 in Snow Light Snow
Moon Phase
Nov. 08 Nov. 13 Nov. 20 Nov. 28 Dec. 06
Sunrise:06:45 AM (PST) Moon Rise:12:21 AM (PST)11/8
Sunset:04:21 PM (PST) Moon Set:01:26 PM (PST)11/8

Copyright © 2014 The Weather Underground, Inc.